Theta_e
310 311 311 310 310 312 312 314 316 317 317 318 319 322 323 323 320 310 304 311 312 324 320 302 303 304 302 301 304 305 299 296 298 296 298 301 303 303 306 307 309 313 313 315 327
309 309 310 309 309 310 311 312 314 316 317 317 318 320 321 321 310 305 314 322 321 324 305 300 299 304 296 298 301 298 296 299 303 302 301 302 303 304 305 308 308 311 317 324 328
308 308 309 309 308 308 310 311 312 314 316 316 316 318 320 316 304 304 320 322 320 321 310 302 302 302 295 297 298 297 293 298 301 306 307 303 303 305 304 303 309 312 316 322 326
307 307 307 308 308 308 308 309 310 312 314 315 316 317 318 309 291 307 320 316 319 317 308 298 298 298 294 294 298 295 300 299 301 306 306 303 306 303 305 306 310 315 321 322 324
306 307 307 307 308 308 308 307 309 310 312 314 314 316 311 303 302 310 321 314 309 314 303 297 297 297 292 294 297 296 298 300 301 302 303 307 304 303 304 305 312 319 322 322 323
306 306 306 307 307 308 307 307 308 310 311 313 313 314 304 296 310 311 313 308 306 308 305 298 297 300 294 293 294 295 299 298 298 298 302 300 301 303 306 309 315 319 320 321 322
305 306 306 306 306 307 307 308 307 308 311 311 312 309 302 299 309 309 308 306 307 308 301 301 300 300 295 292 295 297 294 295 294 298 298 302 295 298 304 308 311 316 318 320 322
305 306 306 306 306 306 306 307 307 307 310 311 312 305 295 310 313 310 307 305 308 311 309 308 301 304 299 297 296 292 291 287 292 297 298 298 288 297 302 306 308 312 314 317 319
305 305 305 306 306 306 306 307 307 307 309 309 302 298 291 312 306 311 308 306 308 308 309 311 308 298 297 291 288 287 281 285 288 295 296 296 291 298 299 302 304 306 310 312 315
305 305 305 305 305 306 306 307 306 305 304 305 303 293 296 296 306 308 310 306 304 304 303 302 297 291 290 287 280 283 282 285 285 290 294 292 293 295 294 296 301 300 301 304 309
305 304 305 304 305 306 302 297 291 292 296 289 290 291 297 301 306 305 307 304 303 299 291 296 289 284 287 289 287 287 284 284 287 290 289 289 290 295 297 293 293 294 295 296 298
304 304 304 304 304 305 299 292 291 295 286 293 293 294 297 301 295 301 307 298 297 291 293 290 285 287 291 293 291 287 285 282 286 289 288 285 286 290 292 295 296 295 294 296 296
304 304 303 303 303 298 294 295 300 298 287 287 292 291 292 298 293 295 302 299 293 291 291 285 288 291 290 289 290 288 284 282 283 286 286 282 282 286 289 293 295 296 298 296 297
304 303 302 302 295 294 293 300 301 299 277 278 286 290 292 297 289 300 302 298 294 290 292 290 293 290 287 286 288 285 289 288 287 285 278 282 275 280 285 286 289 293 294 296 295
304 302 301 301 292 291 295 301 299 290 265 280 286 296 293 289 291 294 302 297 292 291 291 286 289 289 287 286 290 285 291 289 288 284 283 279 277 278 280 282 284 287 290 293 297
304 302 302 297 294 296 299 300 294 274 264 272 287 286 286 288 289 294 295 298 295 291 292 290 293 292 290 290 291 290 287 286 285 284 277 279 279 277 281 283 285 287 288 290 292
304 302 299 297 289 297 297 291 274 266 274 274 280 285 284 284 285 287 289 290 287 283 284 288 287 290 291 286 288 287 283 274 274 272 272 277 278 281 283 286 286 288 289 289 288
304 302 298 295 295 295 293 280 265 267 264 279 282 283 282 284 283 284 284 282 290 286 281 281 278 288 291 287 285 284 283 276 270 271 273 279 276 279 286 288 289 289 289 290 290
303 296 290 292 295 293 284 273 271 268 277 279 281 278 278 282 280 281 281 281 287 289 279 279 280 288 290 290 290 285 282 284 279 274 273 275 279 284 286 287 287 288 290 290 291
292 290 287 295 294 287 276 272 272 279 281 281 276 279 274 276 277 278 276 282 282 287 291 284 278 285 289 290 290 287 288 280 280 267 265 274 276 277 282 284 287 287 288 289 290
288 279 290 295 290 279 267 265 270 280 282 280 278 276 277 275 277 276 277 282 283 283 287 285 283 282 286 285 285 285 283 284 282 277 271 269 274 281 283 284 284 286 288 289 290
280 273 294 295 276 274 266 268 282 281 279 278 280 280 279 278 275 276 275 280 285 285 281 284 283 276 281 286 289 289 286 285 279 275 277 277 275 283 284 284 285 286 288 288 291
282 284 296 291 268 263 267 274 280 279 281 275 276 281 282 279 273 278 280 285 285 284 281 283 280 275 275 280 287 284 286 287 285 281 278 273 277 285 284 283 286 287 289 288 290
278 274 285 286 279 269 264 268 271 282 280 281 276 278 279 278 280 277 280 284 286 286 288 287 280 275 273 275 279 279 283 285 285 280 280 280 281 282 283 283 285 286 287 289 290
277 271 272 275 279 274 274 275 275 274 276 281 279 277 273 269 277 278 280 282 285 287 286 284 274 277 280 281 281 279 279 279 280 283 281 283 283 286 285 286 287 287 288 287 289
276 275 274 277 271 271 272 272 276 277 277 274 275 280 276 271 275 276 280 280 280 283 284 286 277 278 275 279 281 277 279 278 279 280 281 283 283 291 288 287 287 288 287 287 288
283 283 279 279 278 272 265 271 278 280 281 281 280 279 279 280 280 281 282 283 283 281 280 280 276 273 268 277 278 266 274 278 278 280 281 279 284 290 289 288 289 289 289 289 289
Wind_Speed
13 14 14 14 12 14 15 17 18 16 15 14 14 14 12 10 12 4 7 7 3 6 7 8 5 4 2 2 1 2 4 3 5 7 5 4 5 1 0 6 2 5 4 1 13
13 12 12 13 11 14 14 16 17 17 14 15 13 13 13 6 3 8 13 11 8 6 4 5 5 6 3 1 1 4 4 8 5 5 4 6 4 8 5 4 3 1 3 7 15
11 12 13 13 13 13 15 15 16 17 15 14 15 14 11 3 5 7 4 14 5 3 1 2 3 1 2 1 3 4 5 5 2 3 4 5 5 5 7 3 8 11 8 10 11
13 14 15 15 15 15 15 17 15 16 15 12 15 15 8 1 7 2 1 2 2 1 3 3 3 2 5 5 4 3 5 4 2 0 2 6 7 5 7 7 3 8 14 12 13
13 14 15 15 16 16 16 17 18 14 15 12 12 13 4 5 8 3 2 2 2 1 2 5 6 4 6 5 5 4 5 5 2 2 1 2 2 4 7 3 3 9 11 14 15
15 15 16 17 16 17 16 16 16 16 15 15 11 12 4 11 3 6 4 0 2 2 2 3 3 4 4 4 6 4 6 3 3 3 3 2 1 0 3 6 6 10 13 11 13
15 16 17 16 17 17 16 17 16 17 15 16 13 6 6 12 3 6 4 2 2 2 2 3 2 1 3 2 4 4 4 3 4 4 4 5 3 7 2 4 8 9 9 8 11
15 16 18 18 16 16 16 16 16 16 16 17 12 3 7 5 4 6 3 4 4 3 3 3 3 1 3 5 3 5 4 4 2 7 4 7 7 9 6 7 8 9 7 8 9
14 15 16 16 15 15 16 17 15 16 14 15 5 4 7 0 3 7 4 4 3 2 2 1 3 2 3 3 3 3 5 5 3 8 3 5 5 10 7 8 9 8 8 8 7
13 13 15 15 15 16 16 17 11 9 6 6 4 2 6 5 4 5 3 3 3 4 3 3 3 3 2 5 9 6 4 3 6 7 6 5 8 6 3 7 11 8 8 8 8
11 12 14 13 14 15 9 3 2 2 5 7 7 5 2 6 3 4 4 4 3 3 5 3 3 9 8 5 1 3 3 4 3 1 4 5 5 13 7 4 7 9 9 9 9
9 11 13 13 13 13 3 2 2 4 6 13 6 6 7 2 4 5 7 6 5 5 4 3 7 4 3 2 1 1 3 2 3 1 2 3 8 11 7 8 9 10 9 10 5
8 9 10 11 13 4 2 1 4 4 3 6 7 6 5 4 5 5 11 4 4 7 6 4 2 7 7 4 5 3 3 3 1 3 2 4 8 8 8 7 8 10 11 7 11
8 7 6 10 4 5 4 1 7 9 3 7 4 8 6 7 7 6 5 6 4 12 6 4 3 5 2 4 8 8 8 4 2 4 4 3 10 7 8 8 8 12 10 14 12
9 5 2 5 2 3 8 7 8 4 2 3 4 1 4 10 3 6 3 3 8 9 7 5 5 6 6 5 7 4 7 7 4 3 4 1 3 8 2 7 8 9 13 14 16
7 5 2 3 0 0 6 1 2 3 5 6 4 1 5 4 4 3 4 4 1 6 1 4 2 5 6 5 9 7 7 7 5 3 6 7 5 6 6 7 6 6 10 12 11
8 6 5 3 1 1 4 3 3 3 4 6 5 4 3 5 5 3 5 9 6 6 10 5 5 1 3 6 3 4 7 2 1 1 8 4 6 13 5 7 6 8 10 8 7
10 7 2 2 4 3 2 2 5 1 5 5 4 6 6 5 5 3 3 6 10 3 4 7 3 10 6 6 8 7 10 7 9 6 3 2 11 7 6 10 7 8 9 9 8
9 2 2 1 3 0 2 4 1 5 4 7 3 5 9 7 3 4 1 1 3 8 4 6 5 3 5 5 8 5 9 5 6 3 3 6 9 8 5 11 9 10 7 9 8
4 3 2 5 1 4 5 2 4 3 4 4 6 7 9 9 7 8 2 7 8 6 3 1 1 3 5 2 2 7 8 4 2 3 4 6 5 6 8 9 7 9 9 9 5
4 4 3 3 2 4 2 6 5 5 2 3 2 3 3 2 2 3 9 4 9 7 3 2 3 3 5 6 8 4 4 3 5 5 5 2 7 7 6 8 8 7 8 8 8
4 3 1 2 4 2 1 5 4 4 2 3 3 1 2 3 2 3 2 2 5 1 5 4 2 4 7 1 3 10 10 9 5 6 3 1 9 3 6 2 5 5 7 6 5
4 2 1 3 3 3 5 4 3 3 3 4 4 4 3 2 4 2 4 4 3 3 0 2 1 1 6 5 3 5 7 7 4 2 11 6 10 2 3 4 6 8 8 6 5
4 3 2 3 3 6 1 4 5 4 3 2 1 2 3 5 3 4 3 2 3 2 4 2 2 4 1 1 4 2 2 2 8 7 13 14 23 5 5 4 6 5 5 5 3
3 3 3 2 2 2 2 1 3 4 3 4 3 2 4 2 2 1 1 3 2 3 5 1 4 3 3 4 3 2 2 2 3 5 10 17 23 15 7 8 10 6 6 7 7
4 5 3 2 1 4 4 3 1 5 1 4 1 3 3 3 3 2 4 2 2 2 4 2 1 4 3 6 6 4 10 8 9 8 11 15 22 12 5 2 5 8 8 9 10
1 2 6 2 1 4 4 4 2 1 2 3 3 2 3 3 6 8 5 5 4 1 1 2 1 1 3 4 3 7 8 7 4 6 6 12 19 15 7 9 9 9 9 10 12
Wind_Direction
324 321 324 313 332 327 333 328 329 323 325 316 311 303 316 295 320 316 266 249 256 345 338 311 329 342 308 299 34 142 75 193 215 154 219 140 169 150 103 118 191 178 157 243 129
328 326 322 323 323 323 326 331 328 321 324 327 317 307 314 297 280 262 252 267 294 349 26 329 329 345 296 269 12 100 135 213 199 187 182 178 171 160 142 130 221 177 56 113 138
337 332 324 322 321 315 314 324 327 320 318 324 324 312 319 343 293 245 336 233 248 316 304 22 315 321 259 299 188 162 194 205 234 206 157 179 170 172 126 237 213 194 158 153 156
344 333 330 316 314 314 312 308 311 321 313 320 323 325 303 130 235 330 110 64 41 144 147 198 193 187 215 201 183 158 234 182 165 325 172 172 134 181 186 213 233 197 162 154 170
333 327 319 316 313 305 309 304 300 306 310 303 315 327 283 223 247 283 179 11 351 103 207 209 155 167 204 194 147 185 208 189 173 125 45 130 194 192 224 251 88 132 156 177 180
326 324 321 319 315 312 305 298 295 298 304 299 308 320 227 251 252 277 217 231 190 175 235 208 205 215 230 223 178 213 182 199 199 185 157 185 158 82 247 141 124 154 176 185 191
322 322 319 312 306 307 301 298 292 291 295 293 291 296 252 244 329 338 278 213 197 192 211 222 231 91 107 245 223 124 143 325 224 195 210 149 262 229 190 146 162 187 194 199 208
316 322 323 312 301 302 302 297 293 287 291 285 284 277 250 259 297 289 274 274 237 230 203 227 206 287 117 295 37 128 108 187 243 147 235 141 251 249 193 159 200 198 207 212 219
311 326 324 321 311 303 302 293 288 292 285 283 288 205 263 305 206 239 209 237 178 195 234 212 138 180 86 172 78 354 195 204 291 201 127 167 225 253 174 184 210 213 212 223 238
309 323 325 322 312 306 306 289 282 302 285 265 274 255 276 229 230 184 195 240 155 151 130 107 71 129 89 176 203 172 178 209 194 212 182 197 238 264 210 187 214 207 216 221 227
306 317 330 326 321 316 322 344 355 305 257 207 197 238 351 315 310 237 182 161 116 99 157 146 159 204 188 178 104 151 219 194 253 232 154 220 242 252 246 237 234 233 234 232 231
295 307 327 330 328 329 102 231 188 342 264 241 247 277 306 297 301 249 167 179 149 165 138 120 230 178 140 171 57 130 210 224 274 89 136 324 262 255 228 220 224 216 227 233 229
290 305 320 329 328 10 267 92 34 344 296 291 212 213 202 194 264 248 170 179 150 163 185 180 145 165 157 160 188 202 183 169 299 335 84 330 269 245 249 216 216 241 236 219 219
273 290 316 333 25 319 322 331 53 341 18 274 225 253 170 167 274 229 221 160 191 197 144 235 229 103 137 186 183 226 159 139 59 28 249 35 280 273 249 235 225 227 227 230 221
252 263 293 45 279 7 333 320 85 353 85 258 228 302 204 171 191 234 170 94 184 174 165 212 169 171 195 190 169 217 163 172 148 119 12 224 311 266 286 271 252 234 231 236 231
232 227 123 77 359 97 315 291 88 52 272 325 314 228 134 183 239 170 152 74 121 161 66 183 161 173 199 160 178 151 87 57 52 109 259 191 175 205 198 208 249 229 238 237 243
210 185 153 123 289 179 33 15 56 121 330 310 358 317 215 170 225 182 172 168 173 174 203 156 203 152 172 109 112 159 135 43 16 200 233 344 197 250 274 255 239 245 260 262 248
190 177 50 98 169 160 96 74 67 327 257 310 254 296 215 137 226 189 127 190 209 60 142 192 203 183 185 183 169 184 174 164 183 198 231 45 233 243 238 289 281 267 257 282 263
149 86 28 53 216 124 49 38 246 211 254 305 313 345 32 359 79 126 154 7 211 180 172 157 251 137 169 160 149 172 220 149 106 54 67 221 288 295 275 273 274 279 299 280 289
105 92 0 327 162 56 68 300 220 226 312 317 45 23 20 18 40 15 63 5 335 9 259 270 174 195 192 122 203 174 158 178 67 139 255 262 274 242 299 291 271 296 290 295 295
71 75 294 46 35 54 134 230 274 254 279 29 52 52 100 150 113 24 10 72 356 340 350 187 106 321 111 206 177 149 172 172 144 155 178 258 264 214 253 276 282 310 305 309 330
97 60 319 356 67 73 142 202 250 291 350 351 115 54 137 145 90 97 197 187 246 327 14 14 213 214 211 125 272 225 200 191 186 214 246 183 256 241 236 312 128 18 351 359 13
81 75 313 91 108 310 312 295 268 327 333 5 24 41 336 124 92 137 249 247 235 141 122 332 292 223 340 360 59 219 222 216 247 59 213 184 256 295 267 334 3 14 1 18 30
93 93 25 30 111 128 83 306 321 1 342 1 271 58 25 21 27 173 195 289 219 170 155 130 78 78 278 269 334 241 224 318 221 233 241 236 257 250 303 329 319 333 332 354 11
42 231 183 164 207 74 92 275 341 331 351 2 340 120 135 75 16 85 85 299 312 224 171 178 158 196 230 265 265 330 305 318 242 289 247 251 253 255 248 278 301 311 297 310 302
115 120 17 86 45 96 349 294 299 305 116 311 158 357 132 150 195 311 11 310 275 60 186 192 232 194 217 252 179 264 271 240 236 244 257 264 276 270 310 294 266 272 293 299 290
323 44 99 35 107 102 236 238 289 333 283 244 251 333 300 234 201 240 233 271 274 30 76 173 191 59 266 331 89 327 231 216 207 211 232 256 266 277 264 241 246 258 247 248 257